Regional Weather Roundup
Issued by NWS

Home | Current Version | Previous Version | Graphics & Text | Print | Product List | Glossary Off
Versions: 1 2 3 4 5 6 7 8 9 10 11 12 13 14 15 16 17 18 19 20 21 22 23 24 25 26 27 28 29 30 31 32 33 34 35 36 37 38 39 40 41 42 43 44 45 46 47 48 49 50

000
ASUS43 KMKX 312221
RWRWI

WISCONSIN REGIONAL WEATHER ROUNDUP
NATIONAL WEATHER SERVICE MILWAUKEE/SULLIVAN WI
500 PM CDT FRI OCT 31 2014

NOTE: "FAIR" INDICATES FEW OR NO CLOUDS BELOW 12,000 FEET WITH NO
SIGNIFICANT WEATHER AND/OR OBSTRUCTIONS TO VISIBILITY.

WIZ001-002-006>008-014>016-023>028-312300-
NORTHWEST WISCONSIN

CITY           SKY/WX    TMP DP  RH WIND       PRES   REMARKS
SUPERIOR ARPT  CLEAR     39  17  41 CALM      30.50R
ASHLAND        CLEAR     35  21  56 NE5       30.49F WCI  31
HAYWARD        PTCLDY    36  18  48 NE3       30.46F
SIREN          CLEAR     37  15  41 NW3       30.49S
CUMBERLAND     CLEAR     34  18  51 N8        30.47S WCI  27
RICE LAKE      CLEAR     37  19  48 N8        30.48S WCI  31
CHETEK         CLEAR     37  16  43 N5        30.47S WCI  33
LADYSMITH      CLEAR     34  20  55 N8        30.48R WCI  28
EAU CLAIRE     PTCLDY    39  16  39 N8        30.46S WCI  33
MENOMONIE      CLEAR     39  16  38 N7        30.47S WCI  34
NEW RICHMOND   CLEAR     37  16  42 N5        30.49S WCI  34
OSCEOLA        CLEAR     37  19  46 NW7       30.53S WCI  32
$$

WIZ003>005-009-010-017-018-312300-
NORTH CENTRAL WISCONSIN

CITY           SKY/WX    TMP DP  RH WIND       PRES   REMARKS
MANITOWISH WTR CLOUDY    29  23  76 N6        30.43R WCI  23
ARBOR VITAE    CLOUDY    32  24  73 N12       30.42R WCI  23
WOODRUFF       CLOUDY    32  24  73 N12       30.42R WCI  23
RHINELANDER    CLOUDY    30  19  63 N10G17    30.41S WCI  21
EAGLE RIVER    PTCLDY    29  19  66 N9G16     30.40S WCI  21
LAND O LAKES   CLOUDY    30  23  75 N7        30.41S WCI  23
PHILLIPS       CLOUDY    31  19  60 N8        30.44S WCI  24
TOMAHAWK       CLOUDY    32  22  65 N8        30.42S WCI  25
MEDFORD        CLOUDY    33  20  59 N10       30.42R WCI  24
MERRILL        MOCLDY    32  22  66 NE10G18   30.42R WCI  24
$$

WIZ029-030-035-036-043>047-312300-
CENTRAL WISCONSIN

CITY           SKY/WX    TMP DP  RH WIND       PRES   REMARKS
WAUSAU         MOCLDY    34  19  54 N15       30.40R WCI  24
MOSINEE        MOCLDY    34  19  55 N13G18    30.41S WCI  25
MARSHFIELD     CLOUDY    37  19  48 N14       30.41S WCI  28
STEVENS POINT  PTCLDY    33  15  48 N13G23    30.41R WCI  24
WAUPACA        PTCLDY    38  16  41 N13       30.39R WCI  30
WAUTOMA        PTCLDY    38  16  41 N12       30.40R WCI  30
WISC RAPIDS    PTCLDY    37  16  42 N22G29    30.42S WCI  26
CAMP DOUGLAS   PTCLDY    38  18  43 N10G21    30.42R WCI  31
$$

WIZ011>013-019>022-031-037>040-048>050-312300-
NORTHEAST WISCONSIN

CITY           SKY/WX    TMP DP  RH WIND       PRES   REMARKS
ANTIGO         MOCLDY    32  18  58 N13G20    30.39R WCI  22
SHAWANO        MOCLDY    38  19  45 N17G24    30.39R WCI  29
OCONTO         PTCLDY    34  19  53 N14G22    30.39R WCI  25
STURGEON BAY   CLOUDY    36  19  51 N20G31    30.36R WCI  25
GREEN BAY      MOCLDY    37  19  48 N21G32    30.38R WCI  26
MANITOWOC      CLOUDY    37  19  48 N23G36    30.34R WCI  26
APPLETON       MOCLDY    36  18  48 N20G25    30.37R WCI  25
CLINTONVILLE   MOCLDY    37  18  44 NE14G22   30.39R WCI  29
OSHKOSH        PTCLDY    37  19  48 N23G32    30.36R WCI  26
$$

WIZ032>034-041-042-053>061-312300-
SOUTHWEST WISCONSIN

CITY           SKY/WX    TMP DP  RH WIND       PRES   REMARKS
LA CROSSE      PTCLDY    41  19  41 N15       30.45R
SPARTA         PTCLDY    39  16  39 N12G17    30.44R WCI  31
VIROQUA        CLEAR     38  17  43 N15G21    30.40S WCI  29
BOSCOBEL       CLEAR     42  17  36 N15G21    30.42R
PRAIRIE DU CHI CLEAR     41  16  36 NW12G18   30.42R
PLATTEVILLE    CLEAR     39  18  43 N17G23    30.39R WCI  29
$$

WIZ056-057-062-063-064-067-068-312300-
SOUTH CENTRAL WISCONSIN

CITY           SKY/WX    TMP DP  RH WIND       PRES   REMARKS
REEDSBURG      PTCLDY    37  18  46 N13G22    30.39S WCI  29
BARABOO/DELLS  MOCLDY    37  15  40 N10G17    30.39R WCI  30
LONE ROCK      MOCLDY    44  17  33 N15G23    30.41R
MINERAL POINT  MOCLDY    37  16  41 N13G20    30.38R WCI  29
MADISON        MOCLDY    37  17  44 N18       30.38R WCI  27
MIDDLETON      CLOUDY    39  17  41 N15       30.38R WCI  30
WATERTOWN      MOCLDY    37  19  49 N17G25    30.34R WCI  27
MONROE         PTCLDY    36  19  51 N16G24    30.35R WCI  26
JANESVILLE     MOCLDY    39  18  41 N23G29    30.33R WCI  29
$$

WIZ051-052-058>065-066-070>072-312300-
SOUTHEAST WISCONSIN

CITY           SKY/WX    TMP DP  RH WIND       PRES   REMARKS
MILWAUKEE      MOCLDY    37  19  48 N25G38    30.31R WCI  25
WAUKESHA       MOCLDY    36  18  48 N18G29    30.32R WCI  25
MILWAUKEE/TIMM CLOUDY    37  18  44 N20G30    30.33R WCI  27
RACINE         CLOUDY    38  22  52 N30G43    30.30R WCI  26
BURLINGTON     CLOUDY    35  17  48 N18G26    30.31R WCI  25
KENOSHA        CLOUDY    38  20  48 N22G37    30.29R WCI  27
FOND DU LAC    CLOUDY    38  19  46 N16G28    30.36R WCI  29
SHEBOYGAN      CLOUDY    36  18  48 N15G28    30.34R WCI  27
WEST BEND      CLOUDY    36  18  48 N13G26    30.33R WCI  27
JUNEAU         PTCLDY    35  18  49 N18G24    30.36R WCI  24
$$

LSZ147-162-312300-
LAKE SUPERIOR

STATION/POSITION TIME  TEMP    WIND        PRES    WAVE
                       AIR SEA DIR/SP/G            HT/PER
                 (UTC) (F)     (DEG/KT/KT) (MB)    (FT/S)
W MID LAKE BUOY  2150   35 43  300/ 10/ 14 1032.7F   4/ 8
DEVILS ISLAND    2200   35     320/  4/  7 1033.5R
PORT WING        2100   37     340/  3/  4 1032.8F
SAXON HARBOR     2100   36     350/  7/ 12 1032.2F
$$

LMZ867-665-643>646-312300-
LAKE MICHIGAN

STATION/POSITION TIME  TEMP    WIND        PRES    WAVE
                       AIR SEA DIR/SP/G            HT/PER
                 (UTC) (F)     (DEG/KT/KT) (MB)    (FT/S)
CHAMBERS ISLAND  2100   38     340/ 24/ 33 1027.8R
N MID LAKE BUOY  2150   36 48  360/ 29/ 35 1026.9R   8/ 7
NORTHPORT PIER   2101   36     350/ 26     1027.8R
SISTER BAY       2013          360/ 29/ 43   N/A
KEWAUNEE LAKESHO 2200   36     360/ 15/ 23 1026.7R
SHEBOYGAN LAKESH 2200   38 47   10/ 33/ 39 1028.2R
PORT WASHINGTON  2100   38     360/ 15     1026.8
ATWATER BUOY     2200   40     360/ 31     1026.8R
MILWAUKEE LAKESH 2200   38     350/ 20/ 31   N/A
S MID LAKE BUOY  2150   40 47  350/ 33/ 41 1023.0R  15/ 8
KENOSHA   LAKESH 2200   38     350/ 28/ 36 1024.7R
$$

TC  - TEMPERATURE IN CELSIUS
VSB - VISIBILITY IN STATUTE MILES
WCI - WIND CHILL INDEX
HX  - HEAT INDEX




USA.gov is the U.S. government's official web portal to all federal, state and local government web resources and services.